#timestamp,LO_Frequency,Hit,StdDev 
1550390415.5,286046997.1,N
1550390435.4,286046997.4,N
1550390455.2,286046996.9,N
1550390475.0,286046999.1,N
1550390475.9,286046999.1,N
1550390495.8,286046998.3,N
1550390515.6,286047000.3,N
1550390535.4,286047002.2,N
1550390555.3,286047003.1,N
1550390575.1,286047002.0,N
1550390595.9,286046998.1,N
1550390615.7,286047000.9,N
1550390635.5,286047002.3,N
1550390655.4,286047001.7,N
1550390675.2,286046998.6,N
1550390695.0,286047000.6,N
1550390695.9,286047000.6,N
1550390715.8,286047000.0,N
1550390735.6,286047002.1,N
1550390755.5,286047000.3,N
1550390775.3,286046996.6,N
1550390795.1,286046997.1,N
1550390815.9,286046998.7,N
1550390835.7,286046998.1,N
1550390855.5,286046996.5,N
1550390875.4,286046998.5,N
1550390895.2,286046997.0,N
1550390915.1,286046999.5,N
1550390916.0,286046999.5,N
1550390935.8,286046999.4,N
1550390955.6,286047000.1,N
1550390975.5,286047004.4,N
1550390995.3,286047004.4,N
1550391015.2,286046999.4,N
1550391035.9,286046996.6,N
1550391055.7,286046997.3,N
1550391075.6,286046995.4,N
1550391095.4,286046996.4,N
1550391115.2,286046995.5,N
1550391135.1,286046995.6,N
1550391136.0,286046995.6,N
1550391155.8,286046996.1,N
1550391175.7,286046993.7,N
1550391195.5,286046993.6,N
1550391215.3,286046994.5,N
1550391235.2,286046995.9,N
1550391255.0,286046995.1,N
1550391255.9,286046995.1,N
1550391275.7,286046995.0,N
1550391295.6,286046996.3,N
1550391315.4,286046995.9,N
1550391335.3,286046995.9,N
1550391355.1,286046995.1,N
1550391356.0,286046995.1,N
1550391375.8,286046996.3,N
1550391395.7,286046996.3,N
1550391415.5,286046995.3,N
1550391465.4,286046994.4,E
1550391475.3,286046995.8,N
1550391495.1,286047001.2,P
1550391515.9,286046998.5,N
1550391535.7,286046998.1,N
1550391555.5,286047001.9,N
1550391575.4,286047011.9,Y
1550391595.2,286047002.5,P
1550391615.1,286047002.8,N
1550391616.0,286047002.8,N
1550391635.8,286047000.3,N
1550391655.6,286047000.3,N
1550391675.5,286047000.6,N
1550391695.3,286047000.8,N
1550391715.2,286047000.5,N
1550391735.9,286047000.8,N
1550391755.7,286047000.0,N
1550391775.6,286046998.8,N
1550391795.4,286047000.5,N
1550391815.2,286046998.7,N
1550391835.1,286046999.0,N
1550391836.0,286046999.0,N
1550391855.8,286046999.6,N
1550391875.6,286046998.8,N
1550391895.5,286046996.7,N
1550391915.3,286046999.0,N
1550391935.2,286046998.1,N
1550391955.9,286047000.5,N
1550391975.7,286046998.6,N
1550391995.6,286046998.3,N
1550392015.4,286047000.4,N
1550392035.2,286047000.9,N
1550392055.1,286047000.8,N
1550392056.0,286047000.8,N
1550392075.8,286047000.7,N
1550392095.7,286046999.8,N
1550392115.5,286047000.8,N
1550392135.3,286046998.2,N
1550392155.2,286047000.8,N
1550392175.0,286046998.1,N
1550392175.9,286046998.1,N
1550392195.7,286046999.1,N
1550392215.6,286046999.4,N
1550392235.4,286047000.9,N
1550392255.3,286046998.5,N
1550392275.1,286047000.6,N
1550392276.0,286047000.6,N
1550392295.8,286046998.5,N
1550392315.7,286047000.4,N
1550392335.5,286047001.1,N
1550392355.3,286047000.8,N
1550392375.2,286046998.5,N
1550392395.0,286047001.2,N
1550392395.9,286047001.2,N
1550392415.8,286047002.1,N
1550392435.6,286046999.8,N
1550392455.4,286046998.2,N
1550392475.3,286046998.7,N
1550392495.1,286046998.3,N
1550392515.8,286047000.9,N
1550392535.7,286046998.2,N
1550392555.5,286047000.4,N
1550392575.4,286047000.3,N
1550392595.2,286047000.7,N
1550392615.0,286047001.1,N
1550392615.9,286047001.1,N
1550392635.8,286046998.5,N
1550392655.6,286046996.6,N
1550392675.4,286046999.5,N
1550392695.3,286046997.3,N
1550392715.1,286046996.0,N
1550392735.9,286046993.9,Y
1550392755.7,286046993.7,P
1550392775.5,286046996.0,N
1550392795.4,286046997.7,N
1550392815.2,286046996.2,N
1550392835.1,286046997.1,N
1550392836.0,286046997.1,N
1550392855.8,286046997.2,N
1550392875.6,286046994.9,Y
1550392895.5,286047000.1,P
1550392915.3,286047002.8,N
1550392935.1,286047001.2,N
1550392955.9,286046998.7,N
1550392975.7,286046999.1,N
1550392995.6,286047001.2,N
1550393015.4,286047001.6,N
1550393035.2,286047000.3,N
1550393055.1,286046998.5,N
1550393056.0,286046998.5,N
1550393075.8,286047002.5,N
1550393095.6,286047002.8,N
1550393115.5,286047000.3,N
1550393135.3,286046999.4,N
1550393155.2,286047000.5,N
1550393175.9,286047001.1,N
1550393195.7,286046999.6,N
1550393215.6,286046998.4,N
1550393235.4,286046999.7,N
1550393255.2,286046998.3,N
1550393275.1,286046999.1,N
1550393276.0,286046999.1,N
1550393295.8,286046999.1,N
1550393315.7,286047000.8,N
1550393335.5,286046999.2,N
1550393355.3,286046997.1,N
1550393375.2,286046995.6,N
1550393395.0,286046997.4,N
1550393395.9,286046997.4,N
1550393415.8,286046996.8,N
1550393435.6,286046999.3,N
1550393455.4,286046997.4,N
1550393475.3,286046999.3,N
1550393495.1,286046997.2,N
1550393515.8,286046997.3,N
1550393535.7,286046997.8,N
1550393555.5,286046995.6,N
1550393575.4,286046993.6,Y
1550393595.2,286046995.3,P
1550393615.0,286046994.1,P
1550393615.9,286046994.1,N
1550393635.8,286046996.5,N
1550393655.6,286046997.7,N
1550393675.4,286046996.6,N
1550393695.3,286046996.8,N
1550393715.1,286046996.3,N
1550393735.9,286046993.4,Y
1550393755.7,286046998.9,P
1550393775.5,286046998.1,N
1550393795.4,286046999.8,N
1550393815.2,286047002.7,N
1550393835.1,286047000.0,N
1550393836.0,286047000.0,N
1550393855.8,286047000.9,N
1550393875.6,286046998.9,N
1550393895.5,286047000.2,N
1550393915.3,286047002.5,N
1550393935.1,286047002.6,N
1550393955.9,286047001.0,N
1550393975.7,286047000.7,N
1550393995.6,286047000.1,N
